This is the latest recevied weather packets stored in our database for station/object SP9MUF-14. If no packets are shown the sender has not sent any weather packets the latest 10 day(s).
| Time | Temp. | Humidity | Pressure | Rain* | Wind** | Luminosity | Snow |
|---|---|---|---|---|---|---|---|
| 1777285426 | 12.78° C | 28% | 1022.4 hPa | 0 mm | - | 668 W/m² | - |
| 1777285122 | 12.78° C | 29% | 1022.5 hPa | 0 mm | - | 671 W/m² | - |
| 1777284210 | 12.78° C | 29% | 1022.7 hPa | 0 mm | - | 663 W/m² | - |
| 1777283603 | 12.78° C | 30% | 1022.9 hPa | 0 mm | - | 658 W/m² | - |
| 1777283298 | 12.78° C | 31% | 1023 hPa | 0 mm | - | 657 W/m² | - |
| 1777282690 | 12.78° C | 29% | 1022.9 hPa | 0 mm | - | 655 W/m² | - |
| 1777282386 | 12.78° C | 31% | 1023.1 hPa | 0 mm | - | 409 W/m² | - |
| 1777282082 | 11.67° C | 32% | 1023.2 hPa | 0 mm | - | 597 W/m² | - |
| 1777281474 | 11.67° C | 31% | 1023.3 hPa | 0 mm | - | 464 W/m² | - |
| 1777280867 | 11.67° C | 31% | 1023.5 hPa | 0 mm | - | 552 W/m² | - |
| 1777280258 | 11.67° C | 32% | 1023.5 hPa | 0 mm | - | 610 W/m² | - |
| 1777279954 | 11.67° C | 32% | 1023.6 hPa | 0 mm | - | 601 W/m² | - |
| 1777279346 | 10.56° C | 31% | 1023.7 hPa | 0 mm | - | 587 W/m² | - |
| 1777278435 | 10.56° C | 35% | 1023.9 hPa | 0 mm | - | 556 W/m² | - |
| 1777277826 | 10.56° C | 35% | 1024 hPa | 0 mm | - | 539 W/m² | - |
| 1777276610 | 10° C | 38% | 1024.1 hPa | 0 mm | - | 486 W/m² | - |
| 1777276306 | 10° C | 39% | 1024.3 hPa | 0 mm | - | 475 W/m² | - |
| 1777276002 | 10° C | 37% | 1024.2 hPa | 0 mm | - | 470 W/m² | - |
| 1777275702 | 10° C | 38% | 1024.1 hPa | 0 mm | - | 453 W/m² | - |
| 1777275394 | 10° C | 42% | 1024.1 hPa | 0 mm | - | 446 W/m² | - |
| 1777275090 | 8.89° C | 41% | 1024.3 hPa | 0 mm | - | 437 W/m² | - |
| 1777274482 | 8.89° C | 46% | 1024.4 hPa | 0 mm | - | 403 W/m² | - |
| 1777273875 | 7.78° C | 49% | 1024.5 hPa | 0 mm | - | 383 W/m² | - |
| 1777272659 | 7.78° C | 49% | 1024.6 hPa | 0 mm | - | 44 W/m² | - |
| 1777272359 | 7.78° C | 49% | 1024.7 hPa | 0 mm | - | 42 W/m² | - |
* Rain latest hour (hover to see other rain measurements)
** Current wind speed in m/s (hover to see current wind gust speed)